SBFLSBPA

Guest
Details From SBFL - Hercillo Luz
To SBPA - Salgado Filho
Flight Number -
Tags Generated
Created
Modified
Stats Distance 196 nm / 363 km
Max Altitude 0 ft / 0 m
Waypoints 2
Social Downloads 3
Likes 0
Share VATSIM

Download

Looking for another format? Having issues loading an existing format? Contact us
Advertisement - Login to hide

Notes

Generated

Route

SBFL SBPA

ID Type Via Altitude Latitude Longitude Leg Dist Tot Dist Heading (true) Name
O SBFL APT - 0 ft / 0 m -27.67664˚ -48.55458˚ - 0 nm - -
O SBPA APT - 0 ft / 0 m -29.99414˚ -51.18327˚ 196 nm 196 nm 224° / 225° -

Altitude Profile

Advertisement - Login to hide

Weather


0- 5 10 15 20 25 30 35+ Temperature / ° C

Clouds and Precipitation
Forecast for 2018-05-21 18:00 UTC. Updated 10 minutes ago

Ground ~20,000 ft ~40,000 ft Winds

SBFL

Details ICAO SBFL (FLN)
Name Hercillo Luz
Region Brazil
Timezone America/Sao_Paulo (UTC-3.0)
Stats Elevation 19 ft / 6 m (AMSL)
Location -27.670487° -48.547180°
Runways 2
Magnetic Variation 19.380° W

METAR

SBFL 211700Z 33003KT CAVOK 21/10 Q1016

Decode

TAF

TAF SBFL 210915Z 2112/2212 30006KT CAVOK TX20/2118Z TN15/2208Z BECMG 2115/2117 17006KT 9999 FEW030 BECMG 2123/2201 36004KT CAVOK BECMG 2203/2205 28006KT PROB40 2206/2210 4000 BR NSC RMK PCX

Decode

Departure Runways

ID Width Length Bearing (true) Bearing (mag) Surface Threshold Offset Overrun Length
03 148 ft / 45 m 4,939 ft / 1,505 m 11.55° 30.93° Concrete 0 ft / 0 m 0 ft / 0 m
14 148 ft / 45 m 7,543 ft / 2,299 m 121.30° 140.68° Asphalt 720 ft / 219 m 0 ft / 0 m
21 148 ft / 45 m 4,939 ft / 1,505 m 191.55° 210.93° Concrete 0 ft / 0 m 0 ft / 0 m
32 148 ft / 45 m 7,543 ft / 2,299 m 301.29° 320.67° Asphalt 0 ft / 0 m 200 ft / 61 m

SBPA

Details ICAO SBPA (POA)
Name Salgado Filho
Region Brazil
Timezone America/Sao_Paulo (UTC-3.0)
Stats Elevation 11 ft / 3 m (AMSL)
Location -29.994428° -51.171426°
Runways 1
Magnetic Variation 16.944° W

METAR

SBPA 211700Z 30009KT 9999 SCT023 SCT051 17/12 Q1018

Decode

TAF

Not found

Destination Runways

ID Width Length Bearing (true) Bearing (mag) Surface Threshold Offset Overrun Length
11 138 ft / 42 m 7,487 ft / 2,282 m 91.60° 108.54° Asphalt 0 ft / 0 m 230 ft / 70 m
29 138 ft / 42 m 7,487 ft / 2,282 m 271.59° 288.53° Asphalt 0 ft / 0 m 197 ft / 60 m

Approach Navaids

Runway Type Ident Frequency Range Bearing (true) Bearing (mag) Slope Elevation
11 Localiser IPA 110.30 MHz 18 nm / 33 km 90.92° 107.87° - 11 ft / 3 m (AMSL)
11 Glidescope IPA 110.30 MHz 10 nm / 19 km 91.60° 108.54° 3.00° 11 ft / 3 m (AMSL)

Popular Alternatives